Appleton Field

CAP9 · Alberta, Kanada

METAR-Geschichte CAP9 · Appleton Field

Unten siehst du die METARs der letzten paar Tage. Wähle ein Jahr, um ältere METARs ab dem Jahr 2007 zu durchsuchen.

18. Mai 2024

Uhrzeit Code Wetter Temp. Sichtweite Wolkendecke Wind METAR/SPECI
13:18
V
10 °C 40 mi 4.800 ft 330° 330° 3 kt METAR CYYC 181918Z 33003KT 310V010 40SM VCSH BKN048CB BKN068 BKN250 10/M05 A2978 RMK CB5AC2CI1 CI TR CB E-NW MOVG SE SLP110 DENSITY ALT 4100FT
13:05
V
10 °C 40 mi 6.800 ft 360° 360° 5 kt METAR CYYC 181905Z 36005KT 240V010 40SM -SHRA BKN068CB 10/M05 A2978 RMK CB7 SLP111 DENSITY ALT 4100FT
12:00
V
11 °C 40 mi 6.700 ft 230° 230° 6 kt METAR CYYC 181800Z 23006KT 160V270 40SM BKN067 11/M06 A2979 RMK ACC7 CB ASOCTD W MOVG SE / DIST SH S-W SLP113 DENSITY ALT 4200FT
11:00
V
10 °C 40 mi 6.500 ft 270° 270° 3 kt METAR CYYC 181700Z 27003KT 230V040 40SM BKN065 BKN081 10/M05 A2980 RMK SC7AC1 AC TR TCU ASOCTD SLP117 DENSITY ALT 4100FT
10:00
V
9 °C 40 mi 8.500 ft 260° 260° 9 - 15 kt METAR CYYC 181600Z 26009G15KT 240V320 40SM SCT062 BKN085 09/M07 A2982 RMK SC4AC3 TCU ASOCTD / VIRGA SE AND S SLP120 DENSITY ALT 4000FT
09:00
V
8 °C 40 mi 8.500 ft 260° 260° 9 - 15 kt METAR CYYC 181500Z 26009G15KT 40SM BKN085 BKN120 08/M02 A2983 RMK ACC5AC2 SH W SLP125
08:00
V
6 °C 40 mi 10.000 ft 270° 270° 8 kt METAR CYYC 181400Z 27008KT 40SM SCT079 BKN100 06/M03 A2983 RMK ACC3AC2 DIST SH S AND W SLP127
07:00
V
5 °C 8 mi 8.000 ft 270° 270° 6 kt METAR CYYC 181300Z 27006KT 8SM BKN080 05/M02 A2984 RMK AC7 VIRGA SE AND SW-NW SLP129
06:00
V
4 °C 8 mi 11.000 ft 260° 260° 8 kt METAR CYYC 181200Z 26008KT 8SM FEW073 BKN110 04/M01 A2983 RMK AC2AC5 VIRGA SE-SW SLP130
05:42
V
4 °C 8 mi 9.500 ft 250° 250° 8 kt METAR CYYC 181142Z 25008KT 8SM FEW071 BKN095 04/M01 A2984 RMK AC1AC7 AC TR SLP130
05:00
V
4 °C 6 mi 7.200 ft 260° 260° 8 - 16 kt METAR CYYC 181100Z 26008G16KT 6SM -RA BR OVC072 04/M01 A2983 RMK AC8 SLP130
04:00
V
4 °C 6 mi 7.400 ft 260° 260° 7 kt METAR CYYC 181000Z 26007KT 6SM -RA BR OVC074 04/M01 A2984 RMK AC8 SLP133
03:00
V
5 °C 6 mi 6.100 ft 280° 280° 11 - 17 kt METAR CYYC 180900Z 28011G17KT 250V320 6SM -RA BKN061 OVC092 05/M02 A2983 RMK SC6AC2 SLP132
02:00
V
5 °C 7 mi 6.300 ft 300° 300° 7 kt METAR CYYC 180800Z 30007KT 7SM BKN063 05/M03 A2983 RMK SC6 SLP133
01:00
V
5 °C 6 mi 4.200 ft 320° 320° 12 - 27 kt METAR CYYC 180700Z 32012G27KT 280V020 6SM VCSH BKN042 05/M03 A2984 RMK SC6 SH SE-S /CVCTV CLD EMBD SLP137
00:00
V
5 °C 7 mi 6.100 ft 310° 310° 5 kt METAR CYYC 180600Z 31005KT 7SM BKN061 05/M02 A2984 RMK SC7 DIS SH W SLP140

17. Mai 2024

Uhrzeit Code Wetter Temp. Sichtweite Wolkendecke Wind METAR/SPECI
23:00
V
6 °C 6 mi 5.800 ft 320° 320° 7 - 17 kt METAR CYYC 180500Z 32007G17KT 6SM VCSH FEW037 BKN058 BKN072 06/M02 A2983 RMK SC2SC3AC2 VIS SW 10 / SH SE-S SLP134
22:00
V
7 °C 6 mi 5.100 ft 350° 350° 17 - 23 kt METAR CYYC 180400Z 35017G23KT 6SM VCSH BKN051 BKN074 07/M03 A2980 RMK SC5AC2 SH SE-W / CVCTV CLD EMBD SLP124
21:00
V
8 °C 6 mi 8.800 ft 360° 360° 12 kt METAR CYYC 180300Z 36012KT 6SM VCSH SCT061 BKN088 OVC180 08/M02 A2976 RMK SC3AC4AS1 SH SE - W / CVCTV CLD EMBD SLP110
20:00
V
10 °C 7 mi 7.800 ft 340° 340° 8 - 15 kt METAR CYYC 180200Z 34008G15KT 7SM VCSH BKN078 BKN094 10/M03 A2974 RMK ACC6AC1 SH SSE-S AND W-NW / CVCTV EMBD SLP100 DENSITY ALT 4100FT
19:00
V
10 °C 20 mi 7.000 ft 330° 330° 12 - 18 kt METAR CYYC 180100Z 33012G18KT 20SM BKN070 BKN160 BKN250 10/M03 A2972 RMK ACC7AC1CI1 AC TR CI TR SH SW AND NW SLP091 DENSITY ALT 4100FT
18:00
V
10 °C 20 mi 6.400 ft 330° 330° 14 - 20 kt METAR CYYC 180000Z 33014G20KT 20SM BKN064 OVC250 10/M03 A2971 RMK SC7CI1 SLP087 DENSITY ALT 4100FT
17:00
V
9 °C 20 mi 5.600 ft 360° 360° 15 - 22 kt METAR CYYC 172300Z 36015G22KT 20SM BKN056 OVC200 09/M02 A2970 RMK SC6CI2 SLP084 DENSITY ALT 4100FT
16:00
V
9 °C 20 mi 4.600 ft 320° 320° 17 - 24 kt METAR CYYC 172200Z 32017G24KT 20SM BKN046 OVC210 09/M02 A2969 RMK SC7CI1 SH SE SLP079 DENSITY ALT 4100FT
15:13
V
8 °C 20 mi 3.600 ft 350° 350° 16 kt METAR CYYC 172113Z 35016KT 20SM VCSH BKN036 OVC057 08/M00 A2969 RMK SC7SC1 SLP081 DENSITY ALT 3900FT
15:00
V
7 °C 20 mi 3.500 ft 340° 340° 14 kt METAR CYYC 172100Z 34014KT 20SM -RA OVC035 07/M00 A2969 RMK SC8 SLP080 DENSITY ALT 3900FT
14:00
V
6 °C 15 mi 4.700 ft 340° 340° 17 - 24 kt METAR CYYC 172000Z 34017G24KT 15SM FEW027 OVC047 06/M00 A2967 RMK SC1SC7 SH SE-W SLP075
13:00
M
6 °C 15 mi 2.300 ft 330° 330° 18 - 25 kt METAR CYYC 171900Z 33018G25KT 15SM BKN023 OVC048 06/01 A2965 RMK SC5SC3 SLP069
12:51
M
6 °C 15 mi 2.300 ft 360° 360° 13 - 21 kt METAR CYYC 171851Z 36013G21KT 15SM BKN023 OVC048 06/02 A2965 RMK SC5SC3 SLP067
12:00
M
4 °C 5 mi 1.500 ft 350° 350° 18 - 27 kt METAR CYYC 171800Z 35018G27KT 5SM -RA BR OVC015 04/02 A2964 RMK SC8 SLP067
11:00
M
4 °C 5 mi 1.500 ft 350° 350° 16 - 25 kt METAR CYYC 171700Z 35016G25KT 5SM -RA BR OVC015 04/02 A2962 RMK SC8 SLP061
10:47
M
4 °C 5 mi 1.500 ft 350° 350° 19 - 25 kt METAR CYYC 171647Z 35019G25KT 5SM -RA BR OVC015 04/02 A2962 RMK SC8 SLP061
10:00
M
4 °C 6 mi 1.300 ft 350° 350° 14 - 23 kt METAR CYYC 171600Z 35014G23KT 6SM -RA BR OVC013 04/02 A2961 RMK SC8 SLP059
09:34
M
4 °C 6 mi 1.500 ft 350° 350° 21 kt METAR CYYC 171534Z 35021KT 6SM -RA BR OVC015 04/02 A2960 RMK SC8 SLP055
09:18
M
3 °C 5 mi 1.200 ft 350° 350° 15 - 20 kt METAR CYYC 171518Z 35015G20KT 5SM -RA BR OVC012 03/02 A2960 RMK SC8 SLP055
09:00
I
3 °C 5 mi 900 ft 340° 340° 13 - 18 kt METAR CYYC 171500Z 34013G18KT 5SM -RA BR OVC009 03/02 A2960 RMK SC8 SLP054
08:37
I
3 °C 5 mi 800 ft 340° 340° 13 - 19 kt METAR CYYC 171437Z 34013G19KT 5SM -RA BR OVC008 03/02 A2959 RMK SC8 SLP052
08:08
I
2 °C 4 mi 900 ft 340° 340° 11 - 17 kt METAR CYYC 171408Z 34011G17KT 4SM -RASN BR OVC009 02/02 A2959 RMK SC8 SLP050
07:51
I
2 °C 2½ mi 800 ft 340° 340° 15 - 21 kt METAR CYYC 171351Z 34015G21KT 2 1/2SM -RASN BR OVC008 02/01 A2959 RMK SC8 SLP049
07:35
I
3 °C 4 mi 800 ft 340° 340° 15 - 21 kt METAR CYYC 171335Z 34015G21KT 4SM -RA BR OVC008 03/02 A2958 RMK SC8 SLP045
07:00
M
3 °C 4 mi 1.000 ft 360° 360° 15 - 23 kt METAR CYYC 171300Z 36015G23KT 4SM -RA BR BKN010 OVC023 03/02 A2957 RMK ST5SC3 SLP035
06:42
I
3 °C 4 mi 900 ft 350° 350° 16 kt METAR CYYC 171242Z 35016KT 4SM -RA BR BKN009 OVC024 03/02 A2956 RMK ST6SC2 SLP031
06:10
I
4 °C 2½ mi 1.100 ft 350° 350° 14 - 20 kt METAR CYYC 171210Z 35014G20KT 2 1/2SM -RA BR BKN011 OVC024 04/02 A2956 RMK ST5SC3 SLP030
06:00
M
4 °C 6 mi 2.400 ft 350° 350° 15 kt METAR CYYC 171200Z 35015KT 6SM -RA FEW010 BKN024 OVC034 04/02 A2956 RMK ST2SC4SC2 SLP028
05:55
M
4 °C 6 mi 2.600 ft 350° 350° 15 kt METAR CYYC 171155Z 35015KT 6SM -RA OVC026 04/03 A2956 RMK SC8 SLP029
05:00
V
5 °C 8 mi 4.100 ft 350° 350° 11 - 17 kt METAR CYYC 171100Z 35011G17KT 8SM FEW015 OVC041 05/02 A2954 RMK CF2SC6 SLP022
04:00
V
6 °C 8 mi 4.200 ft 340° 340° 12 kt METAR CYYC 171000Z 34012KT 8SM FEW014 OVC042 06/02 A2954 RMK CF1SC8 CF TR SLP017
03:00
V
6 °C 8 mi 4.300 ft 330° 330° 5 kt METAR CYYC 170900Z 33005KT 8SM FEW014 BKN043 06/03 A2955 RMK CF1SC7 CF TR SLP019 DENSITY ALT 3900FT
02:00
V
6 °C 10 mi 9.100 ft 320° 320° 6 kt METAR CYYC 170800Z 32006KT 10SM FEW043 FEW063 BKN091 BKN130 06/03 A2955 RMK SC1SC1AC4AC1 SLP020 DENSITY ALT 3900FT
01:27
V
7 °C 8 mi 9.100 ft 280° 280° 6 kt METAR CYYC 170727Z 28006KT 8SM SCT043 BKN091 BKN130 07/04 A2955 RMK SC4AC2AC1 SLP023 DENSITY ALT 3900FT
01:00
V
7 °C 8 mi 4.800 ft 260° 260° 5 kt METAR CYYC 170700Z 26005KT 8SM BKN048 OVC068 07/04 A2956 RMK SC6AC2 SLP028 DENSITY ALT 3900FT
00:00
V
7 °C 8 mi 4.000 ft 260° 260° 5 kt METAR CYYC 170600Z 26005KT 240V300 8SM OVC040 07/04 A2956 RMK SC8 SLP023 DENSITY ALT 4000FT

16. Mai 2024

Uhrzeit Code Wetter Temp. Sichtweite Wolkendecke Wind METAR/SPECI
23:00
V
6 °C 8 mi 11.000 ft 330° 330° 7 kt METAR CYYC 170500Z 33007KT 8SM BKN110 06/05 A2956 RMK AC7 SLP029 DENSITY ALT 3900FT
22:00
V
6 °C 8 mi 13.000 ft 360° 360° 9 kt METAR CYYC 170400Z 36009KT 8SM FEW078 SCT110 BKN130 06/05 A2956 RMK AC2AC1AC2 SLP032 DENSITY ALT 3900FT
21:39
V
6 °C 8 mi 13.000 ft 360° 360° 8 kt METAR CYYC 170339Z 36008KT 8SM FEW076 SCT110 BKN130 06/05 A2956 RMK AC2AC2AC2 SLP033 DENSITY ALT 3900FT
21:00
V
7 °C 8 mi 8.000 ft 020° 020° 15 kt METAR CYYC 170300Z 02015KT 8SM -SHRA FEW015 SCT035 BKN080 07/05 A2955 RMK CF1SC3AC4 CF TR SLP030 DENSITY ALT 4000FT
20:35
V
7 °C 8 mi 3.300 ft 360° 360° 12 - 19 kt METAR CYYC 170235Z 36012G19KT 8SM -SHRA FEW011 BKN033 BKN110 07/06 A2956 RMK CF1SC5AC2 CF TR SLP034 DENSITY ALT 4000FT
20:20
M
8 °C 4 mi 3.400 ft 340° 340° 15 - 23 kt METAR CYYC 170220Z 34015G23KT 4SM SHRA BKN034 OVC058 08/05 A2957 RMK SC6SC2 CVCTV CLD EMBD PRESRR SLP035 DENSITY ALT 4100FT
20:00
V
8 °C 10 mi 9.900 ft 360° 360° 22 - 30 kt METAR CYYC 170200Z 36022G30KT 10SM -SHRA FEW030 SCT064TCU BKN099 BKN160 08/05 A2954 RMK CF1TCU4AC2AS1 CF TR AS TR SLP025 DENSITY ALT 4100FT
19:27
V
10 °C 10 mi 5.500 ft 350° 350° 21 - 30 kt METAR CYYC 170127Z 35021G30KT 10SM -SHRA BKN055TCU 10/06 A2953 RMK TCU6 SLP020 DENSITY ALT 4400FT
19:00
V
13 °C 20 mi 5.600 ft 350° 350° 19 - 25 kt METAR CYYC 170100Z 35019G25KT 20SM VCSH BKN056TCU 13/03 A2951 RMK TCU7 SLP007 DENSITY ALT 4800FT
18:00
V
14 °C 30 mi 10.000 ft 360° 360° 15 - 21 kt METAR CYYC 170000Z 36015G21KT 30SM BKN100 14/05 A2950 RMK AC7 ACC ASOCTD / SH NW SLP003 DENSITY ALT 4900FT
17:00
V
14 °C 20 mi 25.000 ft 340° 340° 19 kt METAR CYYC 162300Z 34019KT 20SM FEW036 SCT041CB SCT130 BKN250 14/05 A2948 RMK SC1CB3AC1CI2 SC TR CB ALQDS MOVG SE / SH N-SE PRESFR SLP998 DENSITY ALT 4900FT
16:41
V
14 °C 20 mi 13.000 ft 340° 340° 19 - 27 kt METAR CYYC 162241Z 34019G27KT 20SM VCSH SCT041CB BKN130 BKN250 14/06 A2951 RMK CB4AC1CC2 CB ALQDS MOVG SE SLP008 DENSITY ALT 4800FT
16:16
V
14 °C 15 mi 4.100 ft 330° 330° 13 - 22 kt METAR CYYC 162216Z 33013G22KT 15SM -SHRA BKN041CB 14/04 A2952 RMK CB7 CB ALQDS MOVG SE PRESRR SLP010 DENSITY ALT 4800FT
16:00
V
15 °C 15 mi 14.000 ft 350° 350° 15 - 22 kt METAR CYYC 162200Z 35015G22KT 15SM SCT085CB BKN140 BKN250 15/04 A2948 RMK CB4AC1CI1 CB ALQDS MOVG SE / SH S-NW SLP996 DENSITY ALT 5000FT
15:00
V
16 °C 30 mi 25.000 ft 360° 360° 18 - 23 kt METAR CYYC 162100Z 36018G23KT 30SM SCT034CB SCT097 BKN250 16/05 A2947 RMK CB3AC1CI2 CB ALQDS MOVG SE / VIRGA SLP990 DENSITY ALT 5100FT
14:00
V
15 °C 40 mi 21.000 ft 360° 360° 16 - 25 kt METAR CYYC 162000Z 36016G25KT 40SM SCT031 SCT093 BKN210 15/07 A2948 RMK SC3AC1CI2 CB ASOCTD ALQDS MOVG SE / DIST SH NE SLP995 DENSITY ALT 5000FT
13:00
V
12 °C 40 mi 3.300 ft 350° 350° 19 - 27 kt METAR CYYC 161900Z 35019G27KT 40SM BKN033CB BKN079 BKN180 BKN210 12/06 A2948 RMK CB5AC1AC1CI1 CI TR CB OHD MOVG SE / SH NE PRESRR SLP999 DENSITY ALT 4600FT
12:00
V
14 °C 40 mi 20.000 ft 140° 140° 7 kt METAR CYYC 161800Z 14007KT 120V220 40SM FEW026 BKN200 14/07 A2946 RMK SC1CI6 CB ASOCTD NW-N MOVG SE SLP988 DENSITY ALT 4900FT
11:00
V
11 °C 30 mi 22.000 ft 160° 160° 6 kt METAR CYYC 161700Z 16006KT 130V210 30SM FEW010 FEW140 BKN220 11/07 A2949 RMK SC1AC1CI5 TCU ASOCTD W-NW SLP002 DENSITY ALT 4500FT
10:31
V
10 °C 40 mi 22.000 ft 190° 190° 8 kt METAR CYYC 161631Z 19008KT 40SM FEW010 BKN220 10/07 A2950 RMK SC2CI5 SLP008 DENSITY ALT 4400FT
10:17
M
9 °C 20 mi 1.100 ft 160° 160° 9 kt METAR CYYC 161617Z 16009KT 20SM BKN011 BKN100 BKN250 09/07 A2951 RMK SC6AC1CI1 CI TR TCU TOPS ASOCTD W SLP012 DENSITY ALT 4300FT
10:00
I
10 °C 9 mi 800 ft 180° 180° 12 kt METAR CYYC 161600Z 18012KT 9SM BKN008 BKN100 BKN250 10/07 A2951 RMK SC7AC1CI1 AC TR CI TR TCU TOP ASOCTD W SLP011 DENSITY ALT 4400FT
09:00
I
8 °C 9 mi 800 ft 190° 190° 10 kt METAR CYYC 161500Z 19010KT 9SM OVC008 08/07 A2954 RMK SC8 SLP024 DENSITY ALT 4100FT
08:00
I
8 °C 9 mi 900 ft 180° 180° 10 kt METAR CYYC 161400Z 18010KT 9SM OVC009 08/06 A2959 RMK SC8 SLP033 DENSITY ALT 4000FT
07:45
I
7 °C 9 mi 900 ft 180° 180° 8 kt METAR CYYC 161345Z 18008KT 9SM OVC009 07/06 A2960 RMK SC8 SLP032 DENSITY ALT 3900FT
07:00
M
7 °C 9 mi 1.100 ft 170° 170° 8 kt METAR CYYC 161300Z 17008KT 9SM BKN011 BKN046 07/06 A2962 RMK SF5SC2 SLP041 DENSITY ALT 3900FT
06:54
M
7 °C 10 mi 1.100 ft 180° 180° 10 kt METAR CYYC 161254Z 18010KT 10SM BKN011 BKN046 07/05 A2963 RMK SF5SC2 SLP042
06:00
V
7 °C 10 mi 7.300 ft 170° 170° 8 kt METAR CYYC 161200Z 17008KT 10SM FEW014 BKN073 BKN110 07/05 A2966 RMK CF1AC4AC2 DIST SH SW SLP053
05:00
V
7 °C 10 mi 10.000 ft 170° 170° 7 kt METAR CYYC 161100Z 17007KT 10SM BKN100 BKN230 07/06 A2969 RMK AC5CI2 SLP060
04:29
V
7 °C 9 mi 9.300 ft 140° 140° 5 kt METAR CYYC 161029Z 14005KT 9SM FEW056 BKN093 07/06 A2970 RMK SC2AC5 INTMT -RA SLP066
04:00
V
7 °C 7 mi 5.600 ft 170° 170° 6 kt METAR CYYC 161000Z 17006KT 7SM -RA BKN056 BKN085 07/06 A2973 RMK SC5AC3 -RA INTMT SLP073
03:53
V
7 °C 7 mi 5.600 ft 160° 160° 4 kt METAR CYYC 160953Z 16004KT 7SM -RA BKN056 OVC084 07/06 A2973 RMK SC5AC3 -RA INTMT SLP075
03:39
V
7 °C 10 mi 5.600 ft 120° 120° 4 kt METAR CYYC 160939Z 12004KT 10SM BKN056 OVC084 07/06 A2974 RMK SC5AC3 SLP078
03:00
V
7 °C 5 mi 5.400 ft 110° 110° 5 kt METAR CYYC 160900Z 11005KT 5SM -RA BR OVC054 07/05 A2976 RMK SC8 SLP085
02:40
V
8 °C 6 mi 5.400 ft 090° 090° 5 kt METAR CYYC 160840Z 09005KT 6SM -RA BR OVC054 08/05 A2977 RMK SC8 PCPN VRY LGT SLP088
02:00
V
8 °C 15 mi 7.400 ft 130° 130° 5 kt METAR CYYC 160800Z 13005KT 15SM FEW013 OVC074 08/04 A2977 RMK CF1AC8 CF TR SLP091
01:00
V
8 °C 15 mi 9.000 ft 360° 360° 0 kt METAR CYYC 160700Z 00000KT 15SM BKN090 08/05 A2981 RMK AC7 SLP103
00:00
V
8 °C 15 mi 18.000 ft 030° 030° 4 kt METAR CYYC 160600Z 03004KT 15SM FEW013 SCT130 BKN180 08/06 A2981 RMK CF1AC3AC4 CF TR SLP105
Eine Änderung melden